Weather in Kartukovo

Russia / Mari El Republic     56°12′03″N   46°31′19″E
temp.,
°C
wind,
m/s
gust,
m/s
humid.,
%
clouds,
%
prec.,
mm/h
press.,
hPa
HPBL,
m
3 march, wed
wed300:00−2wnw51095100 0.1 1001520
03:00−4wnw61196100 0.6 1001502
06:00−6wnw61294100 0.3 1002570
09:00−6nw71193100 0.7 1004727
12:00−5nw71090100 0.1 1005658
15:00−5wnw6989100 0.2 1007755
18:00−6wnw5990100 0.1 1006553
21:00−6wsw499596 0.2 1006342
4 march, thu
thu400:00−4wsw61295100 0.6 1002645
03:00−3wsw61293100 0.8 1000550
06:00−3wsw71395100 0.5 997712
09:00−2wsw81292100 0.9 996903
12:000wsw81393100 0.9 993962
15:00−1w7128498 2.0 9941217
18:00−4w5128788 0.1 996385
21:00−7w479594 0.1 998127
5 march, fri
fri500:00−8nw2297100 0.1 99922
03:00−10n2293100 0.1 100021
06:00−12nne2393100 0.0 100152
09:00−12n249384 0.0 1003168
12:00−9nnw348857 0.0 1005475
15:00−8nw468778 0.1 1007735
18:00−12wnw339276 0.0 100925
21:00−14wsw239438 0.0 101122
6 march, sat
sat600:00−15wsw33940 0.0 101223
03:00−15ssw34876 0.0 101240
06:00−16ssw34890 0.0 101152
09:00−12ssw469350 0.1 1011236
12:00−9sw4593100 0.3 1010441
15:00−7w2489100 0.6 1009453
18:00−10nw5109297 0.4 1010448
21:00−16wnw459586 0.4 101195
7 march, sun
sun700:00−19w339950 0.0 101132
03:00−20sw3310034 0.0 101130
06:00−19ssw459922 0.0 100984
09:00−14ssw6119356 0.0 1007287
12:00−9ssw81490100 0.1 1003666
15:00−7ssw91592100 1.1 9991116
18:00−5ssw81594100 1.5 995960
21:00−4ssw81594100 3.0 992889